,,,PA_Meas_PMT16A,,PR_Meas_QMR101_102,,RH_Meas_QMH101,,SR_Meas_QMS101,,TA_Meas_QMH101,,GenWind,,GenWind,
date,time,status,PA,status,PR,status,RH,status,SR,status,TA,status,DirAvg,status,SpdAvg,
2012-09-01, 00:00:05,VALID,1000.99,VALID,0,VALID,92.5244,VALID,0.104696,VALID,22.6264,VALID,82,VALID,0.700391,
2012-09-01, 00:01:05,VALID,1001.01,VALID,0,VALID,92.7533,VALID,0,VALID,22.6867,VALID,82,VALID,0.766016,
2012-09-01, 00:02:05,VALID,1001,VALID,0,VALID,92.7457,VALID,0,VALID,22.7452,VALID,82,VALID,0.653125,
2012-09-01, 00:03:05,VALID,1000.98,VALID,0,VALID,92.4939,VALID,0.104696,VALID,22.763,VALID,82,VALID,0.629297,
2012-09-01, 00:04:05,VALID,1000.99,VALID,0,VALID,92.2192,VALID,0,VALID,22.8232,VALID,82,VALID,0.626562,
2012-09-01, 00:05:05,VALID,1000.95,VALID,0,VALID,91.9598,VALID,0,VALID,22.8215,VALID,82,VALID,0.659375,
2012-09-01, 00:06:05,VALID,1000.98,VALID,0,VALID,91.7996,VALID,0,VALID,22.841,VALID,82,VALID,0.696875,
2012-09-01, 00:07:05,VALID,1000.96,VALID,0,VALID,91.586,VALID,0,VALID,22.9013,VALID,82,VALID,0.650391,
2012-09-01, 00:08:05,VALID,1000.93,VALID,0,VALID,91.3189,VALID,0,VALID,22.9013,VALID,82,VALID,0.457422,
2012-09-01, 00:09:05,VALID,1000.91,VALID,0,VALID,91.1358,VALID,0.104696,VALID,22.9013,VALID,82,VALID,0.354688,
2012-09-01, 00:10:05,VALID,1000.89,VALID,0,VALID,91.0137,VALID,0,VALID,22.9208,VALID,82,VALID,0.2125,
2012-09-01, 00:11:05,VALID,1000.89,VALID,0,VALID,90.9298,VALID,0,VALID,22.9013,VALID,82,VALID,0.334375,
2012-09-01, 00:12:05,VALID,1000.9,VALID,0,VALID,90.8459,VALID,0.104696,VALID,22.9208,VALID,82,VALID,0.213281,
2012-09-01, 00:13:05,VALID,1000.89,VALID,0,VALID,90.7391,VALID,0,VALID,22.9013,VALID,48,VALID,0.585938,
2012-09-01, 00:14:05,VALID,1000.89,VALID,0,VALID,90.7543,VALID,0,VALID,22.9013,VALID,43,VALID,0.478906,
2012-09-01, 00:15:05,VALID,1000.91,VALID,0,VALID,90.556,VALID,0,VALID,22.8818,VALID,345,VALID,0.863281,
2012-09-01, 00:16:05,VALID,1000.88,VALID,0,VALID,90.8077,VALID,0,VALID,22.7842,VALID,345,VALID,0.645703,
2012-09-01, 00:17:05,VALID,1000.91,VALID,0,VALID,91.235,VALID,0,VALID,22.7062,VALID,345,VALID,0.767969,
2012-09-01, 00:18:05,VALID,1000.9,VALID,0,VALID,91.5707,VALID,0,VALID,22.6477,VALID,345,VALID,0.559766,
2012-09-01, 00:19:05,VALID,1000.91,VALID,0,VALID,91.9598,VALID,0.104696,VALID,22.5892,VALID,345,VALID,0.369141,
2012-09-01, 00:20:05,VALID,1000.87,VALID,0,VALID,92.3871,VALID,0,VALID,22.5289,VALID,345,VALID,0.228125,
2012-09-01, 00:21:05,VALID,1000.86,VALID,0,VALID,92.616,VALID,0.104696,VALID,22.5306,VALID,345,VALID,0.0710938,
2012-09-01, 00:22:05,VALID,1000.86,VALID,0,VALID,92.7075,VALID,0,VALID,22.4916,VALID,345,VALID,0,
2012-09-01, 00:23:05,VALID,1000.8,VALID,0,VALID,92.4939,VALID,0,VALID,22.4348,VALID,345,VALID,0,
2012-09-01, 00:24:05,VALID,1000.81,VALID,0,VALID,92.6312,VALID,0,VALID,22.3958,VALID,345,VALID,0,
2012-09-01, 00:25:05,VALID,1000.81,VALID,0,VALID,92.8067,VALID,0,VALID,22.3373,VALID,345,VALID,0,
2012-09-01, 00:26:05,VALID,1000.8,VALID,0,VALID,92.9517,VALID,0,VALID,22.3373,VALID,345,VALID,0,
2012-09-01, 00:27:05,VALID,1000.79,VALID,0,VALID,93.1577,VALID,0,VALID,22.3178,VALID,345,VALID,0,
2012-09-01, 00:28:05,VALID,1000.8,VALID,0,VALID,93.3942,VALID,0,VALID,22.3178,VALID,345,VALID,0,
2012-09-01, 00:29:05,VALID,1000.83,VALID,0,VALID,93.5468,VALID,0,VALID,22.2966,VALID,345,VALID,0.187109,
2012-09-01, 00:30:05,VALID,1000.82,VALID,0,VALID,93.6688,VALID,0,VALID,22.3178,VALID,345,VALID,0.355078,
2012-09-01, 00:31:05,VALID,1000.79,VALID,0,VALID,93.7451,VALID,0,VALID,22.3161,VALID,345,VALID,0.344531,
2012-09-01, 00:32:05,VALID,1000.8,VALID,0,VALID,93.7528,VALID,0,VALID,22.3356,VALID,345,VALID,0.419922,
2012-09-01, 00:33:05,VALID,1000.8,VALID,0,VALID,93.8443,VALID,0,VALID,22.3551,VALID,345,VALID,0.555859,
2012-09-01, 00:34:05,VALID,1000.8,VALID,0,VALID,93.852,VALID,0,VALID,22.3941,VALID,345,VALID,0.523438,
2012-09-01, 00:35:05,VALID,1000.77,VALID,0,VALID,93.8443,VALID,0,VALID,22.4153,VALID,345,VALID,0.358203,
2012-09-01, 00:36:05,VALID,1000.78,VALID,0,VALID,93.7833,VALID,0,VALID,22.4153,VALID,345,VALID,0.420312,
2012-09-01, 00:37:05,VALID,1000.76,VALID,0,VALID,93.6688,VALID,0,VALID,22.3729,VALID,345,VALID,0.476953,
2012-09-01, 00:38:05,VALID,1000.75,VALID,0,VALID,93.5391,VALID,0,VALID,22.3534,VALID,345,VALID,0.526563,
2012-09-01, 00:39:04,VALID,1000.74,VALID,0,VALID,93.5163,VALID,0,VALID,22.3178,VALID,345,VALID,0.571875,
2012-09-01, 00:40:04,VALID,1000.74,VALID,0,VALID,93.7375,VALID,0,VALID,22.2966,VALID,345,VALID,0.536719,
2012-09-01, 00:41:04,VALID,1000.71,VALID,0,VALID,93.7833,VALID,0,VALID,22.2788,VALID,345,VALID,0.578125,
2012-09-01, 00:42:04,VALID,1000.68,VALID,0,VALID,93.7909,VALID,0,VALID,22.199,VALID,345,VALID,0.596484,
2012-09-01, 00:43:04,VALID,1000.67,VALID,0,VALID,94.0732,VALID,0,VALID,22.2381,VALID,345,VALID,0.600391,
2012-09-01, 00:44:04,VALID,1000.63,VALID,0,VALID,94.264,VALID,0,VALID,22.2983,VALID,345,VALID,0.581641,
2012-09-01, 00:45:04,VALID,1000.63,VALID,0,VALID,94.3479,VALID,0,VALID,22.2788,VALID,345,VALID,0.501562,
2012-09-01, 00:46:04,VALID,1000.61,VALID,0,VALID,94.4013,VALID,0,VALID,22.3178,VALID,345,VALID,0.358203,
2012-09-01, 00:47:04,VALID,1000.59,VALID,0,VALID,94.4471,VALID,0,VALID,22.3178,VALID,345,VALID,0.301562,
2012-09-01, 00:48:04,VALID,1000.57,VALID,0,VALID,94.4318,VALID,0,VALID,22.3373,VALID,345,VALID,0.253516,
2012-09-01, 00:49:04,VALID,1000.53,VALID,0,VALID,94.3708,VALID,0,VALID,22.3373,VALID,345,VALID,0.310547,
2012-09-01, 00:50:04,VALID,1000.49,VALID,0,VALID,94.325,VALID,0,VALID,22.3356,VALID,345,VALID,0.342187,
2012-09-01, 00:51:04,VALID,1000.5,VALID,0,VALID,94.2487,VALID,0,VALID,22.3568,VALID,345,VALID,0.360938,
2012-09-01, 00:52:04,VALID,1000.46,VALID,0,VALID,94.0885,VALID,0.104696,VALID,22.3534,VALID,345,VALID,0.341406,
2012-09-01, 00:53:04,VALID,1000.47,VALID,0,VALID,93.8977,VALID,0.104696,VALID,22.3551,VALID,347,VALID,0.642578,
2012-09-01, 00:54:04,VALID,1000.44,VALID,0,VALID,93.6307,VALID,0,VALID,22.3551,VALID,56,VALID,0.984766,
2012-09-01, 00:55:04,VALID,1000.4,VALID,0,VALID,93.4018,VALID,0,VALID,22.3729,VALID,58,VALID,0.791797,
2012-09-01, 00:56:04,VALID,1000.42,VALID,0,VALID,93.1729,VALID,0,VALID,22.4136,VALID,58,VALID,0.696875,
2012-09-01, 00:57:04,VALID,1000.41,VALID,0,VALID,93.028,VALID,0,VALID,22.3924,VALID,58,VALID,0.544141,
2012-09-01, 00:58:04,VALID,1000.42,VALID,0,VALID,92.9822,VALID,0,VALID,22.4331,VALID,58,VALID,0.491797,
2012-09-01, 00:59:04,VALID,1000.4,VALID,0,VALID,92.9593,VALID,0,VALID,22.4136,VALID,58,VALID,0.485547,
2012-09-01, 01:00:04,VALID,1000.38,VALID,0,VALID,93.0127,VALID,0,VALID,22.4331,VALID,58,VALID,0.650781,
2012-09-01, 01:01:04,VALID,1000.38,VALID,0,VALID,92.9822,VALID,0,VALID,22.4119,VALID,13,VALID,0.804297,
2012-09-01, 01:02:04,VALID,1000.38,VALID,0,VALID,93.0585,VALID,0,VALID,22.4721,VALID,351,VALID,0.616797,
2012-09-01, 01:03:04,VALID,1000.41,VALID,0,VALID,93.1119,VALID,0,VALID,22.5111,VALID,350,VALID,0.596875,
2012-09-01, 01:04:04,VALID,1000.42,VALID,0,VALID,92.8983,VALID,0,VALID,22.5111,VALID,350,VALID,0.547656,
2012-09-01, 01:05:04,VALID,1000.4,VALID,0,VALID,92.7685,VALID,0,VALID,22.5111,VALID,350,VALID,0.713672,
2012-09-01, 01:06:04,VALID,1000.45,VALID,0,VALID,92.6694,VALID,0,VALID,22.5306,VALID,350,VALID,0.628125,
2012-09-01, 01:07:04,VALID,1000.45,VALID,0,VALID,92.6923,VALID,0,VALID,22.5306,VALID,350,VALID,0.669531,
2012-09-01, 01:08:04,VALID,1000.41,VALID,0,VALID,92.616,VALID,0,VALID,22.5306,VALID,293,VALID,0.643359,
2012-09-01, 01:09:04,VALID,1000.44,VALID,0,VALID,92.5168,VALID,0,VALID,22.5696,VALID,293,VALID,0.766797,
2012-09-01, 01:10:04,VALID,1000.42,VALID,0,VALID,92.4252,VALID,0,VALID,22.5696,VALID,293,VALID,0.830859,
2012-09-01, 01:11:04,VALID,1000.41,VALID,0,VALID,92.471,VALID,0,VALID,22.5696,VALID,293,VALID,0.540234,
2012-09-01, 01:12:04,VALID,1000.41,VALID,0,VALID,92.4557,VALID,0,VALID,22.5892,VALID,293,VALID,0.91875,
2012-09-01, 01:13:04,VALID,1000.38,VALID,0,VALID,92.3871,VALID,0,VALID,22.6104,VALID,293,VALID,0.707031,
2012-09-01, 01:14:04,VALID,1000.37,VALID,0,VALID,92.4634,VALID,0,VALID,22.6104,VALID,293,VALID,0.510938,
2012-09-01, 01:15:04,VALID,1000.39,VALID,0,VALID,92.4405,VALID,0,VALID,22.6104,VALID,293,VALID,0.558203,
2012-09-01, 01:16:04,VALID,1000.37,VALID,0,VALID,92.4023,VALID,0,VALID,22.6104,VALID,293,VALID,0.498047,
2012-09-01, 01:17:04,VALID,1000.35,VALID,0,VALID,92.2803,VALID,0,VALID,22.5696,VALID,293,VALID,0.553516,
2012-09-01, 01:18:04,VALID,1000.35,VALID,0,VALID,92.326,VALID,0,VALID,22.5909,VALID,293,VALID,0.3,
2012-09-01, 01:19:04,VALID,1000.35,VALID,0,VALID,92.3108,VALID,0,VALID,22.5909,VALID,293,VALID,0.31875,
2012-09-01, 01:20:04,VALID,1000.37,VALID,0,VALID,92.3566,VALID,0,VALID,22.5909,VALID,293,VALID,0.219141,
2012-09-01, 01:21:04,VALID,1000.35,VALID,0,VALID,92.4481,VALID,0,VALID,22.5909,VALID,293,VALID,0.198828,
2012-09-01, 01:22:04,VALID,1000.35,VALID,0,VALID,92.532,VALID,0.104696,VALID,22.5679,VALID,293,VALID,0.266016,
2012-09-01, 01:23:04,VALID,1000.3,VALID,0,VALID,92.7151,VALID,0,VALID,22.5874,VALID,293,VALID,0.277734,
2012-09-01, 01:24:04,VALID,1000.32,VALID,0,VALID,92.6846,VALID,0,VALID,22.5892,VALID,293,VALID,0.338281,
2012-09-01, 01:25:04,VALID,1000.28,VALID,0,VALID,92.6617,VALID,0,VALID,22.5484,VALID,293,VALID,0.34375,
2012-09-01, 01:26:04,VALID,1000.23,VALID,0,VALID,92.8296,VALID,0.104696,VALID,22.5696,VALID,293,VALID,0.45,
2012-09-01, 01:27:04,VALID,1000.21,VALID,0,VALID,92.9669,VALID,0.104696,VALID,22.5696,VALID,293,VALID,0.507813,
2012-09-01, 01:28:04,VALID,1000.19,VALID,0,VALID,93.1119,VALID,0.104696,VALID,22.5289,VALID,293,VALID,0.544922,
2012-09-01, 01:29:04,VALID,1000.2,VALID,0,VALID,93.2416,VALID,0,VALID,22.5094,VALID,293,VALID,0.58125,
2012-09-01, 01:30:04,VALID,1000.21,VALID,0,VALID,93.4018,VALID,0,VALID,22.4916,VALID,293,VALID,0.464063,
2012-09-01, 01:31:04,VALID,1000.19,VALID,0,VALID,93.4094,VALID,0,VALID,22.4916,VALID,293,VALID,0.515234,
2012-09-01, 01:32:04,VALID,1000.17,VALID,0,VALID,93.3484,VALID,0,VALID,22.4509,VALID,293,VALID,0.607813,
2012-09-01, 01:33:04,VALID,1000.15,VALID,0,VALID,93.2416,VALID,0,VALID,22.4526,VALID,293,VALID,0.571875,
2012-09-01, 01:34:04,VALID,1000.15,VALID,0,VALID,93.1653,VALID,0,VALID,22.4738,VALID,293,VALID,0.668359,
2012-09-01, 01:35:04,VALID,1000.14,VALID,0,VALID,93.0051,VALID,0,VALID,22.4526,VALID,293,VALID,0.558984,
2012-09-01, 01:36:04,VALID,1000.13,VALID,0,VALID,92.883,VALID,0,VALID,22.4721,VALID,293,VALID,0.464453,
2012-09-01, 01:37:04,VALID,1000.14,VALID,0,VALID,92.7533,VALID,0.104696,VALID,22.4721,VALID,293,VALID,0.357812,
2012-09-01, 01:38:04,VALID,1000.14,VALID,0,VALID,92.6923,VALID,0,VALID,22.4916,VALID,293,VALID,0.358984,
2012-09-01, 01:39:04,VALID,1000.15,VALID,0,VALID,92.6923,VALID,0.104696,VALID,22.4916,VALID,293,VALID,0.539063,
2012-09-01, 01:40:04,VALID,1000.16,VALID,0,VALID,92.822,VALID,0,VALID,22.5094,VALID,293,VALID,0.565234,
2012-09-01, 01:41:04,VALID,1000.16,VALID,0,VALID,92.8525,VALID,0.104696,VALID,22.5094,VALID,293,VALID,0.361719,
2012-09-01, 01:42:04,VALID,1000.17,VALID,0,VALID,92.8906,VALID,0,VALID,22.5306,VALID,293,VALID,0.363672,
2012-09-01, 01:43:04,VALID,1000.17,VALID,0,VALID,92.9288,VALID,0,VALID,22.5094,VALID,293,VALID,0.471875,
2012-09-01, 01:44:04,VALID,1000.19,VALID,0,VALID,92.9517,VALID,0.104696,VALID,22.5306,VALID,293,VALID,0.309766,
2012-09-01, 01:45:04,VALID,1000.18,VALID,0,VALID,93.0737,VALID,0.104696,VALID,22.5289,VALID,293,VALID,0.386719,
2012-09-01, 01:46:04,VALID,1000.18,VALID,0,VALID,93.1805,VALID,0.104696,VALID,22.5289,VALID,293,VALID,0.411328,
2012-09-01, 01:47:04,VALID,1000.16,VALID,0,VALID,93.1653,VALID,0,VALID,22.5501,VALID,293,VALID,0.453516,
2012-09-01, 01:48:04,VALID,1000.16,VALID,0,VALID,93.0814,VALID,0.104696,VALID,22.5094,VALID,16,VALID,0.863672,
2012-09-01, 01:49:04,VALID,1000.19,VALID,0,VALID,92.7151,VALID,0.104696,VALID,22.4704,VALID,50,VALID,1.08672,
2012-09-01, 01:50:04,VALID,1000.17,VALID,0,VALID,92.3947,VALID,0,VALID,22.4704,VALID,62,VALID,1.31133,
2012-09-01, 01:51:04,VALID,1000.16,VALID,0,VALID,92.1887,VALID,0,VALID,22.5111,VALID,73,VALID,1.18828,
2012-09-01, 01:52:04,VALID,1000.19,VALID,0,VALID,92.1658,VALID,0.104696,VALID,22.5501,VALID,79,VALID,1.24766,
2012-09-01, 01:53:04,VALID,1000.18,VALID,0,VALID,92.0743,VALID,0,VALID,22.5696,VALID,79,VALID,1.25117,
2012-09-01, 01:54:04,VALID,1000.16,VALID,0,VALID,92.1582,VALID,0.104696,VALID,22.5679,VALID,80,VALID,1.43984,
2012-09-01, 01:55:04,VALID,1000.17,VALID,0,VALID,91.6241,VALID,0.104696,VALID,22.5679,VALID,84,VALID,1.68359,
2012-09-01, 01:56:04,VALID,1000.18,VALID,0,VALID,91.7385,VALID,0,VALID,22.6087,VALID,84,VALID,1.66992,
2012-09-01, 01:57:04,VALID,1000.2,VALID,0,VALID,92.0819,VALID,0,VALID,22.6282,VALID,88,VALID,1.51563,
2012-09-01, 01:58:04,VALID,1000.21,VALID,0,VALID,91.9445,VALID,0,VALID,22.5874,VALID,96,VALID,1.35312,
2012-09-01, 01:59:04,VALID,1000.19,VALID,0,VALID,91.7767,VALID,0,VALID,22.6087,VALID,106,VALID,1.04883,
2012-09-01, 02:00:04,VALID,1000.22,VALID,0,VALID,91.6851,VALID,0,VALID,22.6087,VALID,106,VALID,0.942187,
2012-09-01, 02:01:04,VALID,1000.26,VALID,0,VALID,91.7157,VALID,0,VALID,22.5874,VALID,106,VALID,0.885547,
2012-09-01, 02:02:04,VALID,1000.26,VALID,0,VALID,91.1511,VALID,0,VALID,22.5696,VALID,106,VALID,0.999609,
2012-09-01, 02:03:04,VALID,1000.27,VALID,0,VALID,90.9527,VALID,0,VALID,22.5892,VALID,106,VALID,1.07773,
2012-09-01, 02:04:04,VALID,1000.27,VALID,0,VALID,91.1053,VALID,0.104696,VALID,22.5874,VALID,106,VALID,1.05391,
2012-09-01, 02:05:04,VALID,1000.3,VALID,0,VALID,91.0977,VALID,0,VALID,22.5874,VALID,106,VALID,0.940234,
2012-09-01, 02:06:04,VALID,1000.3,VALID,0,VALID,91.0366,VALID,0,VALID,22.6087,VALID,106,VALID,0.948438,
2012-09-01, 02:07:04,VALID,1000.29,VALID,0,VALID,90.968,VALID,0,VALID,22.6104,VALID,106,VALID,0.825,
2012-09-01, 02:08:04,VALID,1000.28,VALID,0,VALID,90.5483,VALID,0,VALID,22.5892,VALID,106,VALID,0.833203,
2012-09-01, 02:09:04,VALID,1000.28,VALID,0,VALID,90.2508,VALID,0,VALID,22.6087,VALID,106,VALID,0.614844,
2012-09-01, 02:10:04,VALID,1000.28,VALID,0,VALID,89.9609,VALID,0,VALID,22.5892,VALID,106,VALID,0.399609,
2012-09-01, 02:11:04,VALID,1000.26,VALID,0,VALID,89.8617,VALID,0,VALID,22.5696,VALID,106,VALID,0.510547,
2012-09-01, 02:12:04,VALID,1000.25,VALID,0,VALID,89.7396,VALID,0,VALID,22.5909,VALID,106,VALID,0.564844,
2012-09-01, 02:13:04,VALID,1000.26,VALID,0,VALID,89.6023,VALID,0,VALID,22.5909,VALID,106,VALID,0.527734,
2012-09-01, 02:14:04,VALID,1000.23,VALID,0,VALID,89.236,VALID,0,VALID,22.5714,VALID,106,VALID,0.386719,
2012-09-01, 02:15:04,VALID,1000.25,VALID,0,VALID,89.03,VALID,0,VALID,22.5696,VALID,106,VALID,0.606641,
2012-09-01, 02:16:04,VALID,1000.23,VALID,0,VALID,88.7172,VALID,0,VALID,22.5909,VALID,106,VALID,0.550781,
2012-09-01, 02:17:04,VALID,1000.24,VALID,0,VALID,88.8469,VALID,0,VALID,22.5909,VALID,106,VALID,0.489453,
2012-09-01, 02:18:04,VALID,1000.24,VALID,0,VALID,88.9537,VALID,0,VALID,22.5909,VALID,106,VALID,0.626172,
2012-09-01, 02:19:04,VALID,1000.21,VALID,0,VALID,89.5794,VALID,0,VALID,22.5892,VALID,106,VALID,0.667188,
2012-09-01, 02:20:04,VALID,1000.23,VALID,0,VALID,89.7625,VALID,0,VALID,22.6299,VALID,106,VALID,0.616406,
2012-09-01, 02:21:04,VALID,1000.23,VALID,0,VALID,89.6633,VALID,0,VALID,22.6477,VALID,106,VALID,0.534375,
2012-09-01, 02:22:04,VALID,1000.2,VALID,0,VALID,89.5489,VALID,0,VALID,22.6494,VALID,106,VALID,0.498828,
2012-09-01, 02:23:04,VALID,1000.19,VALID,0,VALID,89.5183,VALID,0,VALID,22.6282,VALID,106,VALID,0.231641,
2012-09-01, 02:24:04,VALID,1000.17,VALID,0,VALID,89.5641,VALID,0,VALID,22.6282,VALID,106,VALID,0.120312,
2012-09-01, 02:25:04,VALID,1000.15,VALID,0,VALID,89.7396,VALID,0,VALID,22.6494,VALID,106,VALID,0.298047,
2012-09-01, 02:26:04,VALID,1000.08,VALID,0,VALID,89.5107,VALID,0,VALID,22.6282,VALID,106,VALID,0.260938,
2012-09-01, 02:27:04,VALID,1000.09,VALID,0,VALID,89.7014,VALID,0,VALID,22.6689,VALID,106,VALID,0.295312,
2012-09-01, 02:28:04,VALID,1000.05,VALID,0,VALID,89.0529,VALID,0,VALID,22.6494,VALID,128,VALID,0.853906,
2012-09-01, 02:29:04,VALID,1000.09,VALID,0,VALID,88.908,VALID,0,VALID,22.6867,VALID,119,VALID,0.173828,
2012-09-01, 02:30:04,VALID,1000.09,VALID,0,VALID,87.6796,VALID,0,VALID,22.6867,VALID,132,VALID,0.877734,
2012-09-01, 02:31:04,VALID,1000.06,VALID,0,VALID,85.7493,VALID,0,VALID,22.786,VALID,132,VALID,1.00234,
2012-09-01, 02:32:04,VALID,1000.09,VALID,0,VALID,84.2997,VALID,0,VALID,22.9013,VALID,132,VALID,0.878516,
2012-09-01, 02:33:04,VALID,1000.08,VALID,0,VALID,82.728,VALID,0,VALID,22.9988,VALID,130,VALID,0.920703,
2012-09-01, 02:34:04,VALID,1000.1,VALID,0,VALID,82.1023,VALID,0,VALID,23.1159,VALID,130,VALID,0.824609,
2012-09-01, 02:35:04,VALID,1000.07,VALID,0,VALID,82.3846,VALID,0,VALID,23.1762,VALID,130,VALID,0.376953,
2012-09-01, 02:36:04,VALID,1000.07,VALID,0,VALID,82.3465,VALID,0,VALID,23.2152,VALID,130,VALID,0.358203,
2012-09-01, 02:37:04,VALID,1000.11,VALID,0,VALID,81.8582,VALID,0,VALID,23.1726,VALID,130,VALID,0.496484,
2012-09-01, 02:38:04,VALID,1000.09,VALID,0,VALID,81.3089,VALID,0.104696,VALID,23.1921,VALID,130,VALID,0.501562,
2012-09-01, 02:39:04,VALID,1000.1,VALID,0,VALID,81.286,VALID,0,VALID,23.2329,VALID,130,VALID,0.631641,
2012-09-01, 02:40:04,VALID,1000.1,VALID,0,VALID,81.1105,VALID,0,VALID,23.2719,VALID,114,VALID,0.775781,
2012-09-01, 02:41:04,VALID,1000.1,VALID,0,VALID,81.0495,VALID,0,VALID,23.2915,VALID,123,VALID,1.20977,
2012-09-01, 02:42:04,VALID,1000.11,VALID,0,VALID,81.08,VALID,0,VALID,23.2719,VALID,127,VALID,1.36367,
2012-09-01, 02:43:04,VALID,1000.1,VALID,0,VALID,81.2097,VALID,0,VALID,23.2915,VALID,132,VALID,1.19102,
2012-09-01, 02:44:04,VALID,1000.08,VALID,0,VALID,80.9655,VALID,0,VALID,23.2719,VALID,149,VALID,1.19219,
2012-09-01, 02:45:04,VALID,1000.08,VALID,0,VALID,80.0805,VALID,0,VALID,23.2915,VALID,154,VALID,1.69336,
2012-09-01, 02:46:04,VALID,1000.04,VALID,0,VALID,79.7982,VALID,0,VALID,23.3695,VALID,148,VALID,1.42031,
2012-09-01, 02:47:04,VALID,1000.04,VALID,0,VALID,79.5235,VALID,0,VALID,23.4298,VALID,143,VALID,1.36641,
2012-09-01, 02:48:04,VALID,1000.02,VALID,0,VALID,79.8516,VALID,0,VALID,23.428,VALID,143,VALID,1.03242,
2012-09-01, 02:49:04,VALID,1000.01,VALID,0,VALID,79.8135,VALID,0,VALID,23.389,VALID,136,VALID,1.04961,
2012-09-01, 02:50:04,VALID,999.988,VALID,0,VALID,79.1878,VALID,0,VALID,23.3695,VALID,145,VALID,1.49063,
2012-09-01, 02:51:04,VALID,1000,VALID,0,VALID,78.8369,VALID,0,VALID,23.3695,VALID,144,VALID,1.38867,
2012-09-01, 02:52:04,VALID,999.976,VALID,0,VALID,78.6003,VALID,0,VALID,23.428,VALID,132,VALID,1.11836,
2012-09-01, 02:53:04,VALID,999.982,VALID,0,VALID,78.0052,VALID,0,VALID,23.428,VALID,137,VALID,1.27148,
2012-09-01, 02:54:04,VALID,999.973,VALID,0,VALID,77.7458,VALID,0.104696,VALID,23.4458,VALID,142,VALID,1.14609,
2012-09-01, 02:55:04,VALID,999.981,VALID,0,VALID,77.8908,VALID,0,VALID,23.4671,VALID,143,VALID,0.929688,
2012-09-01, 02:56:04,VALID,999.962,VALID,0,VALID,78.1349,VALID,0,VALID,23.4475,VALID,143,VALID,0.570703,
2012-09-01, 02:57:04,VALID,999.955,VALID,0,VALID,78.2189,VALID,0,VALID,23.4085,VALID,143,VALID,0.525391,
2012-09-01, 02:58:04,VALID,999.992,VALID,0,VALID,78.7835,VALID,0,VALID,23.3677,VALID,143,VALID,0.46875,
2012-09-01, 02:59:04,VALID,999.993,VALID,0,VALID,79.3023,VALID,0.104696,VALID,23.3695,VALID,143,VALID,0.303906,
2012-09-01, 03:00:04,VALID,999.954,VALID,0,VALID,79.6532,VALID,0,VALID,23.3305,VALID,143,VALID,0.476953,
2012-09-01, 03:01:04,VALID,999.965,VALID,0,VALID,80.1949,VALID,0,VALID,23.2719,VALID,56,VALID,0.621484,
2012-09-01, 03:02:04,VALID,999.957,VALID,0,VALID,81.8124,VALID,0,VALID,23.2134,VALID,56,VALID,0.238672,
2012-09-01, 03:03:04,VALID,999.926,VALID,0,VALID,83.4146,VALID,0,VALID,23.1336,VALID,56,VALID,0.541797,
2012-09-01, 03:04:04,VALID,999.929,VALID,0,VALID,84.2844,VALID,0,VALID,23.0964,VALID,56,VALID,0.414453,
2012-09-01, 03:05:04,VALID,999.918,VALID,0,VALID,85.1542,VALID,0,VALID,23.0378,VALID,56,VALID,0.257031,
2012-09-01, 03:06:04,VALID,999.898,VALID,0,VALID,85.612,VALID,0,VALID,22.9598,VALID,56,VALID,0.371484,
2012-09-01, 03:07:04,VALID,999.899,VALID,0,VALID,86.0926,VALID,0,VALID,22.8623,VALID,56,VALID,0,
2012-09-01, 03:08:04,VALID,999.896,VALID,0,VALID,86.0392,VALID,0,VALID,22.8037,VALID,56,VALID,0,
2012-09-01, 03:09:04,VALID,999.901,VALID,0,VALID,85.9553,VALID,0,VALID,22.7647,VALID,56,VALID,0.00117188,
2012-09-01, 03:10:04,VALID,999.939,VALID,0,VALID,85.7569,VALID,0,VALID,22.7257,VALID,56,VALID,0.247656,
2012-09-01, 03:11:04,VALID,999.944,VALID,0,VALID,85.3602,VALID,0,VALID,22.7257,VALID,56,VALID,0.49375,
2012-09-01, 03:12:04,VALID,999.92,VALID,0,VALID,85.9858,VALID,0,VALID,22.7257,VALID,56,VALID,0.614844,
2012-09-01, 03:13:04,VALID,999.957,VALID,0,VALID,86.3673,VALID,0,VALID,22.685,VALID,56,VALID,0.7125,
2012-09-01, 03:14:04,VALID,999.945,VALID,0,VALID,86.5504,VALID,0,VALID,22.6672,VALID,56,VALID,0.541797,
2012-09-01, 03:15:04,VALID,999.976,VALID,0,VALID,86.7259,VALID,0,VALID,22.6264,VALID,6,VALID,1.07422,
2012-09-01, 03:16:04,VALID,999.978,VALID,0,VALID,86.6801,VALID,0,VALID,22.6672,VALID,6,VALID,0.910547,
2012-09-01, 03:17:04,VALID,999.983,VALID,0,VALID,86.5886,VALID,0,VALID,22.7062,VALID,6,VALID,0.782422,
2012-09-01, 03:18:04,VALID,999.993,VALID,0,VALID,86.4283,VALID,0,VALID,22.7257,VALID,6,VALID,0.939453,
2012-09-01, 03:19:04,VALID,999.973,VALID,0,VALID,86.642,VALID,0,VALID,22.7257,VALID,6,VALID,1.03867,
2012-09-01, 03:20:04,VALID,1000.02,VALID,0,VALID,86.2376,VALID,0,VALID,22.7257,VALID,6,VALID,0.331641,
2012-09-01, 03:21:04,VALID,1000,VALID,0,VALID,86.2223,VALID,0,VALID,22.724,VALID,6,VALID,0.454297,
2012-09-01, 03:22:04,VALID,1000.01,VALID,0,VALID,86.1308,VALID,0,VALID,22.7257,VALID,6,VALID,0.831641,
2012-09-01, 03:23:04,VALID,999.999,VALID,0,VALID,86.1613,VALID,0,VALID,22.7469,VALID,6,VALID,0.626562,
2012-09-01, 03:24:04,VALID,1000.01,VALID,0,VALID,85.9934,VALID,0,VALID,22.7469,VALID,6,VALID,0.882813,
2012-09-01, 03:25:04,VALID,999.99,VALID,0,VALID,85.818,VALID,0,VALID,22.7274,VALID,6,VALID,0.780078,
2012-09-01, 03:26:04,VALID,1000.02,VALID,0,VALID,85.6577,VALID,0,VALID,22.6884,VALID,6,VALID,0.730859,
2012-09-01, 03:27:04,VALID,1000.01,VALID,0,VALID,85.1313,VALID,0,VALID,22.6299,VALID,26,VALID,1.24258,
2012-09-01, 03:28:04,VALID,999.987,VALID,0,VALID,85.1008,VALID,0,VALID,22.5909,VALID,29,VALID,1.21406,
2012-09-01, 03:29:04,VALID,999.988,VALID,0,VALID,84.3531,VALID,0,VALID,22.5519,VALID,29,VALID,1.075,
2012-09-01, 03:30:04,VALID,999.973,VALID,0,VALID,84.6964,VALID,0,VALID,22.5501,VALID,26,VALID,0.993359,
2012-09-01, 03:31:04,VALID,999.951,VALID,0,VALID,84.7498,VALID,0,VALID,22.5519,VALID,36,VALID,1.53359,
2012-09-01, 03:32:04,VALID,999.973,VALID,0,VALID,84.231,VALID,0,VALID,22.5519,VALID,34,VALID,0.973047,
2012-09-01, 03:33:04,VALID,999.95,VALID,0,VALID,85.2457,VALID,0,VALID,22.5306,VALID,34,VALID,0.648047,
2012-09-01, 03:34:04,VALID,999.929,VALID,0,VALID,85.467,VALID,0,VALID,22.5128,VALID,26,VALID,0.837109,
2012-09-01, 03:35:04,VALID,999.937,VALID,0,VALID,85.9629,VALID,0,VALID,22.4933,VALID,26,VALID,0.325391,
2012-09-01, 03:36:04,VALID,999.973,VALID,0,VALID,86.1079,VALID,0,VALID,22.4933,VALID,26,VALID,0.3,
2012-09-01, 03:37:04,VALID,999.945,VALID,0,VALID,85.7646,VALID,0,VALID,22.4314,VALID,26,VALID,0.132031,
2012-09-01, 03:38:04,VALID,999.931,VALID,0,VALID,85.4746,VALID,0.104696,VALID,22.4314,VALID,26,VALID,0.0890625,
2012-09-01, 03:39:04,VALID,999.901,VALID,0,VALID,85.1694,VALID,0,VALID,22.4314,VALID,29,VALID,0.722656,
2012-09-01, 03:40:04,VALID,999.939,VALID,0,VALID,84.7193,VALID,0.104696,VALID,22.4509,VALID,49,VALID,0.733984,
2012-09-01, 03:41:04,VALID,999.926,VALID,0,VALID,84.9711,VALID,0,VALID,22.4916,VALID,49,VALID,0.954687,
2012-09-01, 03:42:04,VALID,999.949,VALID,0,VALID,85.5738,VALID,0,VALID,22.4704,VALID,49,VALID,0.495313,
2012-09-01, 03:43:04,VALID,999.97,VALID,0,VALID,86.0316,VALID,0,VALID,22.4704,VALID,49,VALID,0.400781,
2012-09-01, 03:44:04,VALID,999.975,VALID,0,VALID,86.3215,VALID,0,VALID,22.4721,VALID,49,VALID,0.0179687,